Starlink 32646

operational
NORAD ID: 62307 Int'l Des: 2024-239 Owner: SPXS Country: US Constellation: starlink
LEOCIRCULAR

关于 Starlink 32646

正在加载描述...

实时位置

正在加载3D地球...

即将过境

高度历史

Altitude vs Time

uPlot chart will show altitude changes over time

两行轨道根数

1 62307U 24239G 25306.49844034 .00026857 00000-0 91517-3 0 9994
2 62307 53.1620 51.6963 0001203 96.8883 263.2254 15.30215784 50099
Epoch: Nov 2, 2025 • Age: 23 hours

当前状态

高度 488.4 km
速度 7.62 km/s
星下点 -39.27°S, 58.07°E
发射日期 Dec 13, 2024
运行时间 0.8 years
类型 internet

技术详情

分类 Payload
质量 730.00 kg
干质量 700.00 kg
总质量 730.00 kg
长度 0.30 m
直径 4.10 m
跨度 29.00 m
形状 Box + pan
制造商 SPXS
平台类型 Starlink V2M
阶段状态 In Orbit
所有者/国家 SPXS/US

大型星座

Loading constellations...